Content
SEND FEEDBACK

Daily
Averages
Monthly
Summary
United States of America

GREENSBURG, INDIANA


Home > North America > United States > Indiana
Elevation: 949 feet     Latitude: 39 20N     Longitude: 085 28W

WEATHER
 
SELECT A DAY
Number of Records: 177,110;   Date Range: 10/15/98 - 11/27/14
 
SHARE

PRINT THIS DATA

[ ← Previous Day ]
WEATHER ALMANAC - JANUARY 3, 2014
[ Next Day → ]
[ °C ]   °F
Weather ElementAverageHighLow
Temperature4.8 °F16 °F (8:53 pm)-7.1 °F (6:53 am)
Dewpoint-3.1 °F7 °F (11:53 pm)-13 °F (6:53 am)
Humidity70.2 %87 % (4:53 am)54 % (2:53 pm)
Barometer30.39 in30.52 in (8:53 am)30.18 in (11:53 pm)
Wind Speed7.1 mph18.4 mph (9:53 pm)
Weather ElementAverage
Visibility8.1 mi
Wind DirectionESE (120.4 °)

Weather ElementTotal
Precipitation---
Heating Degree Days60.6 (Base 65)
Averaged from 24 records on January 3, 2014
WEATHER CONDITIONS BREAKOUT
WIND DIRECTION BREAKOUT
WEATHER BY HOUR - JANUARY 3, 2014
[ °C ]   °F
Local TimeTemperatureDewpointHumidityBarometerVisibilityWind DirectionWind SpeedGust SpeedPrecipitationEventsConditions
1:53 AM5.0 °F-4.0 °F66 %30.40 in10.0 miNW (310°)5.8 mphClear
2:53 AM-0.9 °F-7.1 °F75 %30.43 in10.0 miNW (320°)5.8 mphClear
3:53 AM0.0 °F-5.1 °F79 %30.45 in10.0 miCalmClear
4:53 AM-6.0 °F-9.0 °F87 %30.47 in10.0 miWNW (300°)5.8 mphClear
5:53 AM-4.0 °F-9.0 °F79 %30.48 in10.0 miCalmClear
6:53 AM-7.1 °F-13.0 °F75 %30.49 in10.0 miCalmClear
7:53 AM-4.0 °F-11.0 °F72 %30.51 in9.0 miCalmClear
8:08 AM-5.1 °F-11.0 °F76 %30.45 in1.8 miCalmHaze
8:24 AM-4.0 °F-9.0 °F79 %30.45 in0.5 miCalmHaze
8:34 AM-4.0 °F-11.0 °F72 %30.46 in0.2 miCalmHaze
8:53 AM-6.0 °F-13.0 °F72 %30.52 in0.8 miENE (70°)3.5 mphHaze
8:55 AM-6.0 °F-11.9 °F75 %30.46 in2.5 miENE (70°)3.5 mphHaze
9:02 AM-6.0 °F-11.0 °F79 %30.46 in9.0 miENE (70°)3.5 mphClear
1:53 PM12.0 °F1.9 °F64 %30.42 in10.0 miSSW (200°)4.6 mphClear
2:53 PM15.1 °F1.0 °F54 %30.39 in10.0 miSSE (160°)13.8 mphClear
3:53 PM15.1 °F3.9 °F61 %30.38 in10.0 miSSE (150°)10.4 mphClear
4:53 PM15.1 °F5.0 °F64 %30.36 in10.0 miSSE (150°)11.5 mphPartly Cloudy
5:53 PM14.0 °F3.9 °F64 %30.33 in10.0 miSE (140°)10.4 mphClear
6:53 PM14.0 °F3.9 °F64 %30.32 in10.0 miSE (140°)10.4 mphClear
7:53 PM15.1 °F5.0 °F64 %30.29 in10.0 miSSE (150°)13.8 mphClear
8:53 PM16.0 °F6.1 °F65 %30.26 in10.0 miSSE (160°)17.3 mphClear
9:53 PM16.0 °F6.1 °F65 %30.22 in10.0 miSSE (160°)18.4 mphClear
10:53 PM16.0 °F6.1 °F65 %30.20 in10.0 miSouth (170°)18.4 mphClear
11:53 PM16.0 °F7.0 °F68 %30.18 in10.0 miSouth (170°)13.8 mphClear
Hourly data recorded from KGEZ, located miles away from Greensburg, Indiana







STORIES FROM OUR PARTNERS